This is the latest recevied weather packets stored in our database for station/object OK1FET-16. If no packets are shown the sender has not sent any weather packets the latest 10 day(s).
| Time | Temp. | Humidity | Pressure | Rain* | Wind** | Luminosity | Snow |
|---|---|---|---|---|---|---|---|
| 1777725893 | 19.44° C | 31% | 1020.9 hPa | - | - | - | - |
| 1777725351 | 18.89° C | 31% | 1021 hPa | - | - | - | - |
| 1777724810 | 19.44° C | 31% | 1021 hPa | - | - | - | - |
| 1777724540 | 18.89° C | 31% | 1021.1 hPa | - | - | - | - |
| 1777724269 | 18.89° C | 29% | 1021.2 hPa | - | - | - | - |
| 1777723999 | 18.89° C | 29% | 1021.2 hPa | - | - | - | - |
| 1777723187 | 18.89° C | 32% | 1021.4 hPa | - | - | - | - |
| 1777722917 | 18.89° C | 31% | 1021.4 hPa | - | - | - | - |
| 1777722646 | 18.89° C | 31% | 1021.5 hPa | - | - | - | - |
| 1777722380 | 18.89° C | 32% | 1021.6 hPa | - | - | - | - |
| 1777722379 | 18.89° C | 32% | 1021.6 hPa | - | - | - | - |
| 1777722376 | 18.89° C | 32% | 1021.6 hPa | - | - | - | - |
| 1777722105 | 18.89° C | 34% | 1021.6 hPa | - | - | - | - |
| 1777721564 | 18.33° C | 34% | 1021.6 hPa | - | - | - | - |
| 1777721294 | 18.33° C | 33% | 1021.7 hPa | - | - | - | - |
| 1777721023 | 18.33° C | 34% | 1021.8 hPa | - | - | - | - |
| 1777720753 | 18.33° C | 31% | 1021.8 hPa | - | - | - | - |
| 1777720212 | 17.78° C | 34% | 1022 hPa | - | - | - | - |
| 1777719945 | 17.78° C | 35% | 1022 hPa | - | - | - | - |
| 1777719945 | 17.78° C | 35% | 1022 hPa | - | - | - | - |
| 1777719945 | 17.78° C | 35% | 1022 hPa | - | - | - | - |
| 1777718589 | 17.22° C | 36% | 1022.1 hPa | - | - | - | - |
| 1777718323 | 17.78° C | 36% | 1022.1 hPa | - | - | - | - |
| 1777718322 | 17.78° C | 36% | 1022.1 hPa | - | - | - | - |
| 1777718319 | 17.78° C | 36% | 1022.1 hPa | - | - | - | - |
* Rain since midnight (hover to see other rain measurements)
** Current wind speed in m/s (hover to see current wind gust speed)